Batesville, AR

4:42 AM CDT on August 18, 2019 (GMT -0500)
Batesville Regional

Weather History for KBVX - July, 2019

Change the Weather History Date:

Friday, July 19, 2019

  Actual Average Record
Temperature  
Mean Temperature 84 °F -  
Max Temperature 93 °F 94 °F 105 °F (1980)
Min Temperature 75 °F 69 °F 59 °F (1967)
Cooling Degree Days 19    
Growing Degree Days 34 (Base 50)    
Moisture  
Dew Point 76 °F    
Average Humidity 75    
Maximum Humidity 94    
Minimum Humidity 57    
Precipitation  
Precipitation 0.00 in - - ()
Sea Level Pressure  
Sea Level Pressure 29.97 in    
Wind  
Wind Speed 7 mph (SSW)    
Max Wind Speed 10 mph    
Max Gust Speed 16 mph    
Visibility 10 miles    
Events      
Averages and records for this station are not official NWS values.
T = Trace of Precipitation, MM = Missing Value Source: NWS Daily Summary

Daily Weather History Graph

Daily Weather History Graph

Search for Another Location

Airport or City:

Astronomy

Jul. 19, 2019 Rise Set
Actual Time 6:04 AM CDT 8:20 PM CDT
Civil Twilight 5:35 AM CDT 8:49 PM CDT
Nautical Twilight 4:59 AM CDT 9:25 PM CDT
Astronomical Twilight 4:21 AM CDT 10:04 PM CDT
Moon 10:23 PM CDT (7/19) 8:28 AM CDT (7/19)
Length of Visible Light 15h 14m
Length of Day
14h 16m
Waning Gibbous, 93% of the Moon is Illuminated
Jul 19
Waning Gibbous
Jul 24
Last Quarter
Jul 31
New
Aug 7
First Quarter
Aug 15
Full

Hourly Weather History & Observations

Time (CDT) Temp. Heat Index Dew Point Humidity Pressure Visibility Wind Dir Wind Speed Gust Speed Precip Events Conditions
12:56 AM 79.0 °F - 75.0 °F 88% 29.97 in 10.0 mi SSW 5.8 mph - N/A   Clear
1:56 AM 80.1 °F 85.1 °F 75.0 °F 85% 29.96 in 10.0 mi SW 8.1 mph - N/A   Clear
2:56 AM 80.1 °F 84.5 °F 73.9 °F 81% 29.95 in 10.0 mi SW 5.8 mph - N/A   Clear
3:56 AM 78.1 °F - 73.9 °F 87% 29.95 in 10.0 mi SSW 5.8 mph - N/A   Clear
4:56 AM 75.9 °F - 73.9 °F 94% 29.96 in 10.0 mi SSE 3.5 mph - N/A   Clear
5:56 AM 75.9 °F - 73.9 °F 94% 29.97 in 10.0 mi South 3.5 mph - N/A   Clear
7:56 AM 79.0 °F - 75.0 °F 88% 30.01 in 10.0 mi South 4.6 mph - N/A   Clear
8:56 AM 82.9 °F 90.8 °F 75.9 °F 79% 30.01 in 10.0 mi SSW 6.9 mph - N/A   Clear
9:56 AM 87.1 °F 97.3 °F 75.9 °F 69% 30.01 in 10.0 mi SW 8.1 mph - N/A   Clear
10:56 AM 89.1 °F 101.4 °F 77.0 °F 67% 30.02 in 10.0 mi SSW 9.2 mph - N/A   Partly Cloudy
11:56 AM 90.0 °F 100.2 °F 75.0 °F 61% 30.02 in 10.0 mi SSW 10.4 mph - N/A   Clear
12:56 PM 91.0 °F 101.6 °F 75.0 °F 59% 30.00 in 10.0 mi South 9.2 mph - N/A   Mostly Cloudy
1:56 PM 93.0 °F 105.3 °F 75.9 °F 57% 29.98 in 10.0 mi SSW 8.1 mph 16.1 mph N/A   Mostly Cloudy
3:56 PM 91.9 °F 103.2 °F 75.0 °F 58% 29.96 in 10.0 mi SSW 9.2 mph - N/A   Scattered Clouds
4:56 PM 93.0 °F 106.7 °F 77.0 °F 59% 29.95 in 10.0 mi South 8.1 mph - N/A   Clear
5:56 PM 91.0 °F 104.2 °F 77.0 °F 63% 29.94 in 10.0 mi SSW 9.2 mph - N/A   Clear
6:56 PM 89.1 °F 101.4 °F 77.0 °F 67% 29.94 in 10.0 mi South 6.9 mph - N/A   Clear
7:56 PM 86.0 °F 96.9 °F 77.0 °F 74% 29.94 in 10.0 mi South 4.6 mph - N/A   Clear
8:56 PM 84.0 °F 92.6 °F 75.9 °F 76% 29.95 in 10.0 mi South 5.8 mph - N/A   Clear
9:56 PM 82.0 °F 89.4 °F 75.9 °F 82% 29.96 in 10.0 mi South 4.6 mph - N/A   Clear
10:56 PM 81.0 °F 87.3 °F 75.9 °F 85% 29.96 in 10.0 mi South 5.8 mph - N/A   Clear
11:56 PM 81.0 °F 86.7 °F 75.0 °F 82% 29.96 in 10.0 mi SSW 4.6 mph - N/A   Clear